Regional Weather Roundup
Issued by NWS

Home | Current Version | Previous Version | Text Only | Print | Product List | Glossary Off
Versions: 1 2 3 4 5 6 7 8 9 10 11 12 13 14 15 16 17 18 19 20 21 22 23 24 25 26 27

000
ASUS45 KBOU 200310
RWRCO

WEATHER ROUNDUP FOR COLORADO
NATIONAL WEATHER SERVICE DENVER/BOULDER CO
900 PM MDT SAT MAY 19 2018

NOTE: "FAIR" INDICATES FEW OR NO CLOUDS BELOW 12000 FEET WITH NO
SIGNIFICANT WEATHER AND/OR OBSTRUCTIONS TO VISIBILITY.

COZ001>005-013-030-031-200400-
...NORTHWEST COLORADO...

CITY           SKY/WX    TMP DP  RH WIND       PRES   REMARKS
CRAIG          MOCLDY    49  42  77 S7        30.12R
HAYDEN         LGT RAIN  47  42  83 SE14      30.15S
MEEKER         MOCLDY    52  41  66 CALM      30.12R
RANGELY        FAIR      57  42  57 E15G23    30.02R
RABBIT EARS PA LGT SNOW  32  32 100 CALM      30.28S
STEAMBOAT SPGS CLOUDY    43  43  99 CALM      30.19S
WALDEN         MOCLDY    39  30  70 NE7       30.22R
$$

COZ006>008-011-200400-
...WEST CENTRAL VALLEYS...

CITY           SKY/WX    TMP DP  RH WIND       PRES   REMARKS
GRAND JUNCTION FAIR      67  33  28 NE12      29.93R
MONTROSE       MOCLDY    63  34  33 SE12      30.03R
EAGLE          FAIR      49  40  71 SE3       30.15R
RIFLE          FAIR      59  39  47 NE5       30.04R
DELTA          FAIR      71  29  20 W6        29.97R
NUCLA          NOT AVBL
$$

COZ017>023-064>068-200400-
...SOUTHWEST COLORADO...

CITY           SKY/WX    TMP DP  RH WIND       PRES   REMARKS
DURANGO        FAIR      59  28  30 N5        30.02R
CORTEZ         FAIR      56  29  35 S6        29.97R
PAGOSA SPRINGS FAIR      53  22  29 CALM      30.11R
TELLURIDE      MOCLDY    49  30  48 CALM      30.21R
WOLF CREEK PAS FAIR      37  21  52 E3        30.40R
$$

COZ009-010-012-014-032>034-037-058>063-200400-
...CENTRAL COLORADO...

CITY           SKY/WX    TMP DP  RH WIND       PRES   REMARKS
ASPEN          CLOUDY    49  34  56 VRB3      30.15R
BUENA VISTA    LGT RAIN  44  40  86 N10       30.25R
COPPER MTN     MOCLDY    36  28  75 S12       30.35R
BERTHOUD PASS  HAZE      27  16  63 SE13      30.37R VSB<1/4 WCI  16
COTTONWOOD PAS RAIN      43  39  87 SW5       30.30R
GUNNISON       FAIR      48  37  65 VRB6      30.19R
GRANBY         FAIR      38  36  94 N7        30.22S
KREMMLING      FAIR      52  37  58 SE8       30.18R
LEADVILLE      FAIR      35  35 100 S5        30.27R WCI  31
MONARCH PASS   HVY SNOW  32  30  93 MISG      30.47R VSB<1/4
SALIDA         MOCLDY    49  44  81 E5        30.29R
SUNLIGHT       FAIR      34  30  86 E5        30.31R WCI  30
WILKERSON PASS SNOW      32  30  93 N5        30.38R VSB 1/2 WCI  27
$$

COZ069>075-200400-
...SAN LUIS VALLEY/SANGRE DE CRISTO MOUNTAINS...

CITY           SKY/WX    TMP DP  RH WIND       PRES   REMARKS
ALAMOSA        FAIR      51  34  52 E14       30.12R
DEL NORTE      FAIR      55  27  33 W8        30.16R
LA VETA PASS   LGT RAIN  34  34 100 N16G23    30.42R VSB 1/2 WCI  23
SAGUACHE       NOT AVBL
$$

COZ035-036-038>040-200400-
...NORTHERN COLORADO FRONT RANGE...

CITY           SKY/WX    TMP DP  RH WIND       PRES   REMARKS
DENVER INTL AP CLOUDY    45  40  82 N8        30.25R
AURORA         CLOUDY    44  42  96 N7        30.26R
FRONT RANGE AP CLOUDY    46  43  88 N8        30.26R
ERIE MUNI ARPT CLOUDY    47  42  82 E5        30.30S
BOULDER MUN AP DRIZZLE   45  45 100 CALM      30.25R
CENTENNIAL     CLOUDY    44  41  89 NE8       30.25R
BROOMFIELD     NOT AVBL
FORT COLLINS   CLOUDY    47  42  83 E7        30.26R
LONGMONT       CLOUDY    49  43  79 E5        30.27S
$$

COZ041-046-047-076>085-087-088-200400-
...PIKES PEAK/PALMER DIVIDE AND SOUTHERN FOOTHILLS...

CITY           SKY/WX    TMP DP  RH WIND       PRES   REMARKS
COLO. SPRINGS  MOCLDY    45  37  73 NW17G29   30.23R
A. F. ACADEMY  CLOUDY    43  37  81 N14       30.24R
SCHRIEVER AFB  NOT AVBL
CHEYENNE MTN   MOCLDY    41  38  91 NW9       30.19R
ELLICOTT         N/A    N/A N/A N/A N17G30    30.21R
FALCON         MOCLDY    42  36  81 N14G31    30.24R
FORT CARSON    CLOUDY    46  38  75 N13       30.21R
LIMON          MOCLDY    42  41  96 N16       30.22R
MONUMENT HILL  CLOUDY    37  36  93 N13       30.27R
CANON CITY     CLOUDY    52  45  76 E8G18     30.20R
WALSENBURG     CLOUDY    48  45  87 NE9       30.24S
TRINIDAD       LGT RAIN  47  45  93 NE6       30.26R
$$

COZ042>045-048>051-090-091-200400-
...NORTHEAST COLORADO...

CITY           SKY/WX    TMP DP  RH WIND       PRES   REMARKS
GREELEY ARPT   CLOUDY    47  42  83 NE10      30.26R
AKRON          CLOUDY    42  41  96 N17       30.23R
BURLINGTON     CLOUDY    45  42  89 N18G26    30.20R
WRAY           CLOUDY    45  45 100 N15       30.20S
YUMA           CLOUDY    41  41 100 N14       30.22R FOG
STERLING       CLOUDY    43  41  93 N12       30.23R
HOLYOKE        CLOUDY    46  43  87 N12G18    30.22R FOG
FORT MORGAN    CLOUDY    43  40  89 NE15      30.25S
$$

COZ086-089-092>099-200400-
...SOUTHEAST COLORADO...

CITY           SKY/WX    TMP DP  RH WIND       PRES   REMARKS
PUEBLO         CLOUDY    52  43  71 E9        30.21R
LA JUNTA       CLOUDY    53  44  71 NE8       30.21R
LAMAR          LGT RAIN  51  44  77 NE20G28   30.15F
SPRINGFIELD      N/A     51  43  74 N21       30.16R
$$




USA.gov is the U.S. government's official web portal to all federal, state and local government web resources and services.